• Join FlightAware (Why Join?)
  • Login
  • US Flag 
07:27PM EDT


 

Airport Tracker/Info


-or-


 

Live Flight TrackerFlight Track Log ✈ SWA469 ✈ 28-Apr-2013 ✈ KMDW - KRSW

Flight Track Log - Related Links

Times and Time Zones

All times are in EDT time to prevent confusion due to time zone crossing. See the SWA469 flight status page for this flight to view local times or setup timezone preferences in your user account.

Time Position Orientation Groundspeed Altitude Reporting Facility
EDT Latitude Longitude Course Direction KTS MPH feet Rate Location/Type
09:08AM 41.8000 -87.7000 177° South 183 211 2,400  Level Chicago TRACON
09:10AM 41.6986 -87.6928 177° South 283 326 6,700 3,120 Climbing Chicago Center
09:11AM 41.6278 -87.7389 206° Southwest 282 325 10,700 3,180 Climbing Chicago Center
09:12AM 41.5472 -87.7903 206° Southwest 326 375 13,300 2,820 Climbing Chicago Center
09:13AM 41.4581 -87.8500 207° Southwest 352 405 16,600 3,060 Climbing Chicago Center
09:14AM 41.0890 -87.8825 177° South  Level FlightAware Approximate
09:14AM 41.3569 -87.8839 194° South 376 433 19,600  Level Chicago Center
09:15AM 41.2456 -87.8931 184° South 393 452 22,100 2,400 Climbing Chicago Center
09:16AM 41.1294 -87.8897 179° South 412 474 24,600 2,340 Climbing Chicago Center
09:17AM 41.0108 -87.8858 179° South 424 488 27,000 2,160 Climbing Chicago Center
09:18AM 40.8889 -87.8797 178° South 435 501 29,100 2,040 Climbing Chicago Center
09:19AM 40.7417 -87.8767 179° South 443 510 31,300 1,800 Climbing Chicago Center
09:20AM 40.6169 -87.8722 178° South 447 514 32,900 1,440 Climbing Chicago Center
09:21AM 40.4886 -87.8675 178° South 460 529 34,300 1,260 Climbing Chicago Center
09:22AM 40.3597 -87.8647 179° South 466 536 35,600 1,560 Climbing Chicago Center
09:23AM 40.2486 -87.8633 179° South 469 540 37,100 1,740 Climbing Indianapolis Center
09:24AM 40.1233 -87.8378 171° South 458 527 38,700 900 Climbing Indianapolis Center
09:25AM 40.0022 -87.7986 166° South 449 517 39,000 120 Climbing Indianapolis Center
09:26AM 39.8792 -87.7617 167° South 450 518 39,000  Level Indianapolis Center
09:27AM 39.7586 -87.7258 167° South 446 513 39,000  Level Indianapolis Center
09:28AM 39.6367 -87.6881 167° South 447 514 39,000  Level Indianapolis Center
09:29AM 39.5153 -87.6514 167° South 446 513 39,000  Level Indianapolis Center
09:30AM 39.3750 -87.6089 167° South 444 511 39,000  Level Indianapolis Center
09:31AM 39.2539 -87.5733 167° South 444 511 39,000  Level Indianapolis Center
09:32AM 39.1319 -87.5367 167° South 447 514 39,000  Level Indianapolis Center
09:33AM 39.0219 -87.5056 168° South 446 513 39,000  Level Indianapolis Center
09:34AM 38.9003 -87.4686 167° South 447 514 39,000  Level Indianapolis Center
09:35AM 38.7536 -87.4250 167° South 451 519 39,000  Level Indianapolis Center
09:36AM 38.6322 -87.3897 167° South 447 514 39,000  Level Indianapolis Center
09:37AM 38.5114 -87.3550 167° South 446 513 39,000  Level Indianapolis Center
09:38AM 38.3892 -87.3194 167° South 452 520 39,000  Level Indianapolis Center
09:39AM 38.2683 -87.2844 167° South 452 520 39,000  Level Indianapolis Center
09:40AM 38.1481 -87.2497 167° South 450 518 39,000  Level Indianapolis Center
09:41AM 38.0019 -87.2072 167° South 451 519 39,000  Level Indianapolis Center
09:42AM 37.8814 -87.1717 167° South 446 513 39,000  Level Indianapolis Center
09:44AM 37.7614 -87.1378 167° South 441 507 39,000  Level Indianapolis Center
09:45AM 37.6411 -87.1028 167° South 442 509 39,000  Level Indianapolis Center
09:45AM 37.5447 -87.0772 168° South 433 498 39,000  Level Memphis Center
09:46AM 37.4250 -87.0431 167° South 433 498 39,000  Level Memphis Center
09:47AM 37.3097 -87.0114 168° South 433 498 39,000  Level Memphis Center
09:48AM 37.1900 -86.9772 167° South 433 498 39,000  Level Memphis Center
09:49AM 37.0744 -86.9458 168° South 433 498 39,000  Level Memphis Center
09:50AM 36.9717 -86.9164 167° South 428 493 39,000  Level Memphis Center
09:51AM 36.8539 -86.8825 167° South 423 487 39,000  Level Memphis Center
09:52AM 36.7386 -86.8514 168° South 423 487 39,000  Level Memphis Center
09:53AM 36.6228 -86.8175 167° South 429 494 39,000  Level Memphis Center
09:54AM 36.5072 -86.7839 167° South 430 495 39,000  Level Memphis Center
09:55AM 36.4022 -86.7550 168° South 430 495 39,000  Level Memphis Center
09:56AM 36.2594 -86.7175 168° South 430 495 39,000  Level Memphis Center
09:57AM 36.1417 -86.6842 167° South 430 495 39,000  Level Memphis Center
09:58AM 36.0297 -86.6328 160° South 436 502 39,000  Level Memphis Center
09:59AM 35.9281 -86.5836 159° South 436 502 39,000  Level Memphis Center
10:02AM 35.5806 -86.4108 158° South 435 501 39,000  Level Atlanta Center
10:03AM 35.4650 -86.3567 159° South 447 514 39,000  Level Atlanta Center
10:04AM 35.3492 -86.2972 157° South 447 514 39,000  Level Atlanta Center
10:05AM 35.2333 -86.2433 159° South 447 514 39,000  Level Atlanta Center
10:06AM 35.1197 -86.1819 156° South 452 520 39,000  Level Atlanta Center
10:07AM 35.0097 -86.1333 160° South 452 520 39,000  Level Atlanta Center
10:08AM 34.8794 -86.0669 157° South 459 528 39,000  Level Atlanta Center
10:09AM 34.7614 -86.0083 158° South 459 528 39,000  Level Atlanta Center
10:10AM 34.6414 -85.9525 159° South 459 528 39,000  Level Atlanta Center
10:11AM 34.5253 -85.8944 158° South 459 528 39,000  Level Atlanta Center
10:12AM 34.4053 -85.8389 159° South 459 528 39,000  Level Atlanta Center
10:13AM 34.2972 -85.7939 161° South 459 528 39,000  Level Atlanta Center
10:14AM 34.1750 -85.7336 158° South 467 537 39,000  Level Atlanta Center
10:15AM 34.0525 -85.6786 160° South 467 537 39,000  Level Atlanta Center
10:16AM 33.9303 -85.6186 158° South 473 544 39,000  Level Atlanta Center
10:17AM 33.8036 -85.5589 159° South 479 551 39,000  Level Atlanta Center
10:18AM 33.6792 -85.5017 159° South 479 551 39,000  Level Atlanta Center
10:19AM 33.5525 -85.4447 159° South 485 558 39,000  Level Atlanta Center
10:20AM 33.4278 -85.3853 158° South 480 552 39,000  Level Atlanta Center
10:21AM 33.2992 -85.3261 159° South 488 562 39,000  Level Atlanta Center
10:22AM 33.1725 -85.2672 159° South 488 562 39,000  Level Atlanta Center
10:23AM 33.0375 -85.1983 157° South 488 562 39,000  Level Atlanta Center
10:24AM 32.9083 -85.1547 164° South 488 562 39,000  Level Atlanta Center
10:25AM 32.7772 -85.1086 164° South 475 547 39,000  Level Atlanta Center
10:26AM 32.6483 -85.0650 164° South 469 540 39,000  Level Atlanta Center
10:27AM 32.5211 -85.0242 165° South 480 552 39,000  Level Atlanta Center
10:28AM 32.3942 -84.9811 164° South 480 552 39,000  Level Atlanta Center
10:29AM 32.2653 -84.9378 164° South 480 552 39,000  Level Atlanta Center
10:30AM 32.1506 -84.9025 165° South 472 543 39,000  Level Atlanta Center
10:31AM 32.0214 -84.8619 165° South 477 549 39,000  Level Atlanta Center
10:32AM 31.8944 -84.8192 164° South 475 547 39,000  Level Atlanta Center
10:34AM 31.6853 -84.7481 164° South 463 533 39,000  Level Jacksonville Center
10:35AM 31.5564 -84.7042 164° South 463 533 39,000  Level Jacksonville Center
10:36AM 31.4275 -84.6625 165° South 473 544 39,000  Level Jacksonville Center
10:37AM 31.3008 -84.6214 164° South 473 544 39,000  Level Jacksonville Center
10:38AM 31.1742 -84.5778 164° South 473 544 39,000  Level Jacksonville Center
10:39AM 31.0453 -84.5342 164° South 473 544 39,000  Level Jacksonville Center
10:40AM 30.9203 -84.4933 164° South 473 544 39,000  Level Jacksonville Center
10:41AM 30.7936 -84.4525 165° South 473 544 39,000  Level Jacksonville Center
10:42AM 30.6647 -84.4092 164° South 473 544 39,000  Level Jacksonville Center
10:43AM 30.5628 -84.3786 166° South 473 544 39,000  Level Jacksonville Center
10:44AM 30.4322 -84.2947 151° Southeast 473 544 39,000  Level Jacksonville Center
10:45AM 30.3139 -84.2161 150° Southeast 485 558 39,000  Level Jacksonville Center
10:46AM 30.1978 -84.1400 150° Southeast 485 558 39,000  Level Jacksonville Center
10:47AM 30.0794 -84.0639 151° Southeast 491 565 39,000  Level Jacksonville Center
10:48AM 29.9592 -83.9881 151° Southeast 491 565 39,000  Level Jacksonville Center
10:49AM 29.8428 -83.9128 151° Southeast 491 565 39,000  Level Jacksonville Center
10:50AM 29.7244 -83.8350 150° Southeast 491 565 39,000  Level Jacksonville Center
10:51AM 29.5914 -83.7500 151° Southeast 496 571 39,000  Level Jacksonville Center
10:52AM 29.4750 -83.6728 150° Southeast 496 571 39,000  Level Jacksonville Center
10:53AM 29.3544 -83.5956 151° Southeast 496 571 39,000  Level Jacksonville Center
10:54AM 29.2358 -83.5208 151° Southeast 496 571 39,000  Level Jacksonville Center
10:55AM 29.1172 -83.4417 150° Southeast 491 565 39,000  Level Jacksonville Center
10:56AM 28.9964 -83.3697 152° Southeast 491 565 39,000  Level Jacksonville Center
10:57AM 28.8733 -83.3100 157° South 491 565 39,000  Level Jacksonville Center
10:58AM 28.7483 -83.2644 162° South 485 558 39,000 -900 Level Jacksonville Center
10:59AM 28.6211 -83.2189 163° South 480 552 37,200 -2,160 Descending Jacksonville Center
11:00AM 28.4961 -83.1736 162° South 480 552 34,700 -2,400 Descending Jacksonville Center
11:01AM 28.3792 -83.1286 161° South 474 545 32,400 -2,220 Descending Jacksonville Center
11:02AM 28.1917 -83.0603 162° South 457 526 29,000 -2,100 Descending Miami Center
11:03AM 28.0808 -83.0211 163° South 437 503 27,000 -1,020 Descending Miami Center
11:04AM 27.9744 -82.9731 158° South 423 487 27,000 -60 Level Miami Center
11:05AM 27.8700 -82.9275 159° South 413 475 26,900 -600 Descending Miami Center
11:06AM 27.7678 -82.8775 157° South 399 459 25,800 -1,080 Descending Miami Center
11:07AM 27.6611 -82.8322 159° South 399 459 24,800 -960 Descending Miami Center
11:08AM 27.5669 -82.7922 159° South 386 444 23,900 -960 Descending Miami Center
11:09AM 27.4831 -82.7528 157° South 367 422 22,900 -1,020 Descending Miami Center
11:10AM 27.3928 -82.7106 157° South 361 415 21,900 -1,080 Descending Miami Center
11:11AM 27.2883 -82.6656 159° South 361 415 20,800 -1,080 Descending Miami Center
11:12AM 27.2069 -82.6103 149° Southeast 356 410 19,800 -1,140 Descending Miami Center
11:13AM 27.1361 -82.5531 144° Southeast 356 410 18,600 -1,440 Descending Miami Center
11:14AM 27.0553 -82.4908 146° Southeast 351 404 17,000 -1,740 Descending Miami Center
11:15AM 26.9822 -82.4336 145° Southeast 335 386 15,200 -1,800 Descending Miami Center
11:16AM 26.9114 -82.3767 144° Southeast 322 371 13,500 -1,500 Descending Miami Center
11:17AM 26.8506 -82.3275 144° Southeast 311 358 12,300 -1,200 Descending Miami Center
11:18AM 26.7839 -82.2731 144° Southeast 304 350 11,100 -1,260 Descending Miami Center
11:19AM 26.7189 -82.2236 146° Southeast 298 343 9,800 -1,380 Descending Miami Center
11:20AM 26.6539 -82.1719 145° Southeast 298 343 8,400 -1,500 Descending Miami Center
11:21AM 26.5911 -82.1225 145° Southeast 293 337 6,900 -1,500 Descending Miami Center
11:22AM 26.5475 -82.0533 125° Southeast 280 322 5,500 -1,500 Descending Miami Center
11:23AM 26.5039 -81.9889 127° Southeast 269 310 4,000 -1,440 Descending Miami Center
11:24AM 26.4625 -81.9244 126° Southeast 263 303 2,700 -1,320 Descending Miami Center
11:26AM 26.4834 -81.8166 50° Northeast  Level FlightAware Approximate
11:33AM 26.5333 -81.7500 50° Northeast  Level FlightAware Approximate
11:34AM 26.5362 -81.7552 50° Northeast  Level Estimated
11:35AM 26.5333 -81.7500 50° Northeast  Level FlightAware Approximate
11:36AM 26.5362 -81.7552 50° Northeast  Level Estimated
11:37AM 26.5333 -81.7500 50° Northeast  Level FlightAware Approximate